Showing default

COSMOS 2268, 22999

Orbit data source: Space-Track

COSMOS 2268, 22999 is a payload satellite owned by VKS (CIS) in LEO that was launched on Sat, 12 Feb 1994 UTC via a TSIKLON-3 launch vehicle from the Plesetsk Missile And Space Complex (PKMTR). Payload-class satellites include a variety of spacecraft equipped with specific instruments for various scientific and technological missions. These include communications satellites like Starlink; space stations such as the ISS; scientific satellites like the Hubble; Earth observation satellites from companies like Planet Labs, Umbra, and HawkEye 360; GPS; miniature CubeSats for education and research; and military/defense satellites.

Loading next visibility...
Identifier
22999, 1994-011A
Orbit
LEO
Country
Flag of CISCIS
Related business
Manufacturer
NPO PM
Mission
Defense Communications
Bus & Motor
STRELA-3, Unknown motor
Mass
225 kg wet, 225 kg dry
Launch date (UTC)
1994-02-12 (32 years ago)
Launch vehicle
TSIKLON-3
Launch site
Plesetsk Missile And Space Complex (PKMTR)
Object type
Payload
Rocket body
Debris
Shape & HBR
Cyl, 0.8 m
Radar Cross Section
1.257 m², Medium (>0.1 m² and < 1m²)

Expand to show TLE details & history
Last TLE update: 12 hours ago

TLE from 12 hours ago
0 COSMOS 2268
1 22999U 94011A   25260.80000870  .00000019  00000-0  49869-4 0  9994
2 22999  82.5797 154.0274 0011120  95.2774 329.9998 12.61218449454429
Epoch: 2025-09-17T19:12Z
TLE epoch observation values (Epoch: 2025-09-17T19:12:00.751Z)
Latitude
64.27606°
Longitude
-115.3423°
Altitude
1,421.457 km
Speed
7.159 km/s
True Right ascension
11h 18m 31s
True Declination
64° 09' 10"
Sunlit
Object was in daylight at epoch
Visualization orbit readout
Latitude
Unknown
Longitude
Unknown
Altitude
Unknown
Speed
Unknown
Apparent Right ascension
Unknown
Apparent Declination
Unknown
Sunlit
N/A
Visualization observer readout
Local Sidereal Time
23:43:48
Azimuth
Unknown
Elevation
Unknown
Doppler factor
Unknown
Orbital elements
Apogee altitude
1,423.908 km
Perigee altitude
1,406.575 km
Semi-major axis
7,793.378 km
Eccentricity
0.00111
Inclination
82.5797°
RAAN
154.0274°
Arg. of periapsis
95.2774°
True anomaly
329.93601°
Mean anomaly
329.9998°
Eccentric anomaly
329.96791°
Mean motion
3.15467 °/min
Orbital period
114.12 mins
BSTAR
0.000049869
Loading maneuver chart data...
Computing Atmospheric mass density...
Loading historical data...
Loading historical data...
Loading historical data...
Loading historical data...
Loading historical data...
Loading historical data...
Loading historical data...

Documentation

Showing up to 5 results
|